Location: Tassajara
(37.7958°N, 121.8636°W)
Time: 04:09:34
(UTC+00:00)

Daily predictions for brighter satellites

Satellite Brightness Start Highest point End
(mag) Time Altitude Azimuth Time Altitude Azimuth Time Altitude Azimuth
Cosmos 1603 3.7 02:27:38 10° NNW 02:33:16 66° ENE 02:38:50 10° SSE
Cosmos 2233 Rocket 4.1 02:27:20 10° S 02:33:35 90° W 02:39:49 10° N
SJ 16-02 3.8 02:32:12 10° SW 02:35:56 27° WNW 02:39:41 10° N
Sich 1 Rocket 4.0 02:33:45 10° SSE 02:37:58 41° E 02:42:13 10° NNE
Cosmos 1975 3.0 02:34:13 10° S 02:38:17 82° W 02:42:24 10° N
H-2A R/B 2.7 02:34:56 10° SE 02:39:18 33° ENE 02:43:46 10° N
Okean 2 3.3 02:35:59 10° N 02:40:09 72° E 02:44:17 10° SSE
Meteor 1-21 4.3 02:35:01 10° N 02:40:32 57° ENE 02:46:01 10° SSE
NOSS 2-2 (E) 3.6 02:38:12 10° SW 02:41:39 60° NW 02:45:18 10° NNE
Cosmos 1842 3.1 02:40:15 10° N 02:44:07 75° E 02:47:59 10° SSE
ATLAS 2AS CENTAUR R/B 4.2 02:42:48 10° SE 02:47:44 18° ESE 02:52:42 10° ENE
BREEZE-M DEB (TANK) 3.9 02:45:54 10° NNW 02:48:39 28° NE 02:54:11 12° E
CZ-4 R/B 1.5 02:44:47 10° SSE 02:49:00 89° W 02:53:14 10° NNW
NOSS 2-2 (D) 3.5 02:47:10 10° SW 02:50:38 63° NW 02:54:16 10° NNE
Cosmos 1707 3.4 02:50:38 10° NNE 02:54:05 31° ENE 02:57:32 10° SE
USA 116 3.6 02:50:28 10° NNE 02:54:07 84° ESE 02:58:12 10° SSW
Okean 2 Rocket 3.5 02:50:05 10° SSE 02:54:16 39° E 02:58:27 10° NNE
CENTAUR R/B 4.3 02:49:15 10° NNW 02:55:39 25° NE 03:01:27 13° E
Cosmos 1300 Rocket 4.0 02:52:32 10° SSE 02:56:38 40° E 03:00:46 10° NNE
Ariane Rocket 4.2 02:56:56 14° ESE 03:00:02 23° ENE 03:03:58 10° NNE
Okean-O 3.6 03:00:40 10° S 03:04:57 50° W 03:09:17 10° NNW
Cosmos 1437 3.2 03:02:01 10° NNW 03:04:58 57° W 03:07:53 10° S
DELTA 2 R/B (1) 3.8 03:00:03 10° WNW 03:05:32 64° SSW 03:09:53 16° SE
YAOGAN 1 2.9 03:01:42 10° S 03:05:59 69° W 03:10:18 10° NNW
SJ-6B 4.3 03:08:51 17° ENE 03:08:55 17° ENE 03:11:25 10° NNE
ARGOS 3.4 03:04:18 10° SE 03:09:26 49° ENE 03:14:36 10° N
ATLAS 5 CENTAUR R/B 2.9 03:06:29 10° NW 03:10:00 86° NE 03:22:17 10° SE
In-Cosmos 22 4.4 03:05:42 10° N 03:10:44 42° ENE 03:15:49 10° SSE
SL-08 RB Rocket 4.4 03:09:03 16° SE 03:12:07 34° ENE 03:16:14 10° N
USA 186 2.9 03:14:50 24° ENE 03:14:50 24° ENE 03:17:20 10° NNE
CZ-2C R/B 3.2 03:11:43 10° S 03:16:54 80° WSW 03:22:25 10° NNW
CZ-2C R/B 3.1 03:12:19 10° NNE 03:17:31 39° E 03:22:43 10° SSE
Cosmos 2298 Rocket 3.9 03:12:26 10° S 03:17:43 71° ESE 03:23:02 10° NNE
Cosmos 1536 Rocket 4.1 03:16:52 10° N 03:21:00 36° ENE 03:22:45 26° ESE
MOS 1 Rocket 3.1 03:18:24 10° N 03:22:48 86° WNW 03:27:05 10° SSW
ISS -1.4 03:22:57 10° W 03:25:35 21° NNW 03:28:15 10° NNE
Cosmos 1025 Rocket 3.1 03:21:21 10° N 03:25:40 56° E 03:28:46 18° SSE
Cosmos 372 Rocket 4.5 03:20:56 10° SSW 03:26:07 64° WNW 03:31:19 10° NNE
Cosmos 2285 Rocket 4.1 03:26:30 10° S 03:32:29 49° ESE 03:38:33 10° NNE
Cosmos 1844 3.7 03:27:28 10° S 03:33:05 61° ESE 03:38:40 10° NNE
Cosmos 2151 Rocket 3.5 03:31:33 10° S 03:35:59 84° E 03:40:28 10° N
Cosmos 1844 Rocket 2.6 03:31:51 10° SSW 03:37:24 85° ESE 03:43:01 10° NNE
Cosmos 1464 Rocket 4.1 03:31:45 10° SSW 03:37:51 75° W 03:44:02 10° N
Cosmos 1867 3.6 03:33:26 10° NNW 03:38:55 81° WSW 03:42:27 22° SSE
NOSS 3-2 (A) 4.2 03:31:55 10° NNW 03:39:28 56° NE 03:43:55 29° ESE
CZ-2C R/B 1.2 03:37:46 10° W 03:41:16 48° S 03:41:25 48° S
Cosmos 2150 Rocket 4.4 03:41:32 10° SSW 03:46:51 69° WNW 03:52:17 10° NNE
Cosmos 1092 Rocket 4.3 03:42:35 10° N 03:48:27 43° ENE 03:49:45 38° ESE
MetOp-A 4.2 03:49:02 41° ESE 03:50:33 55° ENE 03:55:47 10° N
Cosmos 1125 Rocket 3.4 03:45:26 10° SSW 03:50:43 86° ESE 03:56:05 10° NNE
MOS 1 4.2 03:53:26 36° SE 03:55:47 69° ENE 04:01:28 10° N
USA 234 3.2 03:52:10 13° NE 03:58:10 66° SE 04:04:40 10° SW
DMSP B5D2-2 3.9 03:54:08 10° NNE 03:59:27 82° ESE 04:04:44 10° S
Cosmos 1674 3.6 04:01:05 10° N 04:03:41 41° N 04:03:41 41° N
Resurs 01 Rocket 3.5 04:14:23 20° NNE 04:14:23 20° NNE 04:16:03 10° N
NOSS 3-4 (A) 3.1 04:09:24 10° SSW 04:15:13 74° ESE 04:21:21 10° NE
NOSS 3-2 (C) 4.2 04:07:37 10° NNW 04:15:15 60° NE 04:17:17 49° ESE
NOSS 3-4 (C) 3.1 04:09:31 10° SSW 04:15:20 73° ESE 04:17:40 39° NE
H-2A R/B 4.0 04:14:41 10° SSW 04:18:44 25° W 04:22:51 10° NW
Cosmos 1048 Rocket 4.3 04:17:25 10° NNW 04:22:42 64° WSW 04:23:44 52° SSW
OBJECT-B 3.9 04:29:43 11° NNW 04:29:43 11° NNW 04:29:51 10° NNW
Okean 1 Rocket 3.8 04:30:29 52° WNW 04:30:29 52° WNW 04:34:40 10° N
ATLAS 2AS CENTAUR R/B 2.9 04:29:51 10° SSW 04:37:46 89° WNW 04:45:46 10° NNE
Ariane Rocket 4.2 04:37:08 30° SW 04:38:43 38° W 04:43:27 10° NNW
Milstar 3 Cent rocket 3.9 04:40:25 10° WSW 04:43:05 21° SW 04:43:05 21° SW
CENTAUR R/B 3.1 04:39:09 10° NNW 04:47:32 85° ENE 04:48:39 71° SE
Cosmos 2082 Rocket 4.3 04:45:47 10° N 04:47:12 15° NNE 04:47:12 15° NNE
Meteor 2-5 Rocket 4.2 04:47:49 10° NNW 04:52:52 59° WNW 04:52:52 59° WNW
ATLAS 3B R/B 3.7 04:49:28 10° NNW 04:54:32 33° NNE 04:54:32 33° NNE
USA 238 DEB 4.3 04:56:27 10° NW 05:03:31 53° WSW 05:04:13 51° SW
USA 238 4.3 04:56:33 10° NW 05:03:38 53° WSW 05:04:18 52° SW
USA 234 4.4 05:39:40 35° N 05:40:53 38° NNW 05:46:48 10° W
USA 267 4.5 10:06:08 10° NE 10:09:48 36° NE 10:09:48 36° NE
Cosmos 1980 Rocket 3.8 10:34:34 31° NE 10:34:34 31° NE 10:37:32 10° NNE
SL-16 R/B 4.3 10:47:26 18° ESE 10:48:44 19° E 10:52:39 10° NE
ADEOS II 4.1 10:48:27 10° N 10:50:02 20° N 10:50:02 20° N
ARIANE 5 R/B 4.1 10:50:30 10° NNE 10:53:01 29° NNE 10:53:01 29° NNE
IDEFIX/ARIANE 42P 3.6 10:57:09 10° NNE 11:00:51 43° NE 11:00:51 43° NE
SJ 16-02 3.9 11:02:47 10° NNE 11:05:57 19° ENE 11:09:05 10° ESE
H-2A R/B 4.3 11:09:16 10° ESE 11:12:44 24° ENE 11:16:17 10° NNE
Cosmos 1238 Rocket 4.2 11:09:39 10° N 11:16:09 65° E 11:17:48 47° SE
X-37B 4.0 11:23:27 12° NE 11:23:27 12° NE 11:23:54 10° NE
Lacrosse 5 3.7 11:24:36 21° NNW 11:24:36 21° NNW 11:27:26 10° NNE
Cosmos 921 Rocket 3.9 11:56:57 35° NNW 11:56:57 35° NNW 11:59:41 10° N
Cosmos 1812 3.5 11:56:57 41° N 11:56:57 41° N 11:59:35 10° N
